Location: Newark
(45.9456°N, 15.4064°E)
Time: 21:01:47
(UTC+00:00)

Transit 2A Rocket - Pass Details

Date: 02 February 2020
Orbit: 591 x 912 km, 66.7° (Epoch: 25 February)

Event Time Altitude Azimuth Distance (km) Brightness Sun altitude
Exits shadow 03:44:35 14° 7° (N) 1,725 6.9 -27.2°
Drops below altitude 10° 03:45:24 10° 14° (NNE) 1,983 7.3 -27.1°
Sets 03:48:02 0° 27° (NNE) 2,930 8.4 -26.6°
